K7JKM Weather Reports


time (UTC)temp
F
wind
direction
speed
knots
gust
knots
rain 1hr
in
rain 24hr
in
rain mn
in
humidity
%
barometer
mb
20260510181508 65 176 0.0 0.0 0.00 0.00 0.00 51 1020.0
20260510180010 63 288 0.0 0.9 0.00 0.00 0.00 52 1020.0
20260510174510 63 116 0.0 0.9 0.00 0.00 0.00 54 1019.9
20260510173011 62 139 0.0 2.6 0.00 0.00 0.00 53 1020.0
20260510171515 62 127 0.0 0.0 0.00 0.00 0.00 54 1019.9
20260510170004 61 129 0.0 0.9 0.00 0.00 0.00 55 1019.7
20260510164513 60 98 0.0 0.0 0.00 0.00 0.00 57 1019.6
20260510163014 59 183 0.0 0.9 0.00 0.00 0.00 58 1019.5
20260510161518 59 190 0.0 0.9 0.00 0.00 0.00 58 1019.6
20260510160018 58 269 0.0 0.9 0.00 0.00 0.00 59 1019.5
20260510154514 57 206 0.0 1.7 0.00 0.00 0.00 59 1019.6
20260510153022 56 247 0.0 0.0 0.00 0.00 0.00 61 1019.3
20260510151506 55 311 0.0 0.9 0.00 0.00 0.00 62 1019.3
20260510150023 54 295 0.0 0.9 0.00 0.00 0.00 62 1018.9
20260510144543 54 306 0.0 1.7 0.00 0.00 0.00 63 1018.9
20260510143023 53 294 0.0 0.0 0.00 0.00 0.00 65 1018.8
20260510141523 53 311 0.0 0.9 0.00 0.00 0.00 65 1018.7
20260510140022 52 196 0.0 0.9 0.00 0.00 0.00 66 1018.5
20260510134520 52 302 0.0 0.0 0.00 0.00 0.00 66 1018.4
20260510133015 52 302 0.0 0.9 0.00 0.00 0.00 67 1018.2
20260510131525 52 212 0.0 0.9 0.00 0.00 0.00 67 1018.4
20260510130025 52 290 0.0 0.0 0.00 0.00 0.00 67 1018.0
20260510124526 52 291 0.0 0.9 0.00 0.00 0.00 66 1018.2
20260510123026 52 134 0.0 0.9 0.00 0.00 0.00 67 1018.3
20260510121525 52 288 0.0 0.9 0.00 0.00 0.00 67 1018.1
20260510120021 52 320 0.0 0.9 0.00 0.00 0.00 67 1018.1
20260510114518 52 301 0.0 0.9 0.00 0.00 0.00 67 1018.1
20260510113027 52 236 0.0 2.6 0.00 0.00 0.00 67 1017.9
20260510111527 53 323 0.0 2.6 0.00 0.00 0.00 66 1018.1
20260510110026 53 307 0.0 2.6 0.00 0.00 0.00 66 1018.1
20260510104526 53 309 0.0 2.6 0.00 0.00 0.00 66 1017.7
20260510103025 53 311 0.0 3.5 0.00 0.00 0.00 66 1017.6
20260510101523 53 316 0.0 4.3 0.00 0.00 0.00 66 1017.4
20260510100024 53 293 0.0 2.6 0.00 0.00 0.00 66 1017.0
20260510094519 53 293 0.0 1.7 0.00 0.00 0.00 66 1016.6
20260510093018 54 173 0.0 6.1 0.00 0.00 0.00 66 1016.5
20260510091519 54 321 0.9 7.0 0.00 0.00 0.00 66 1016.8
20260510090012 54 316 0.9 6.1 0.00 0.00 0.00 66 1016.8
20260510084520 54 283 0.9 3.5 0.00 0.00 0.00 66 1016.8
20260510083027 54 352 0.0 0.9 0.00 0.00 0.00 66 1016.4
20260510081532 55 309 0.0 2.6 0.00 0.00 0.00 66 1016.4
20260510080023 55 311 0.0 1.7 0.00 0.00 0.00 66 1016.6
20260510074522 55 316 0.0 2.6 0.00 0.00 0.00 66 1016.5
20260510073022 56 315 0.0 3.5 0.00 0.00 0.00 65 1016.6
20260510071513 56 300 0.0 4.3 0.00 0.00 0.00 65 1016.5
20260510070035 57 34 0.0 5.2 0.00 0.00 0.00 64 1016.5
20260510064527 58 310 0.0 3.5 0.00 0.00 0.00 62 1016.4
20260510063028 59 233 0.0 4.3 0.00 0.00 0.00 61 1016.3
20260510061527 60 315 0.0 4.3 0.00 0.00 0.00 59 1016.2
20260510060036 60 255 0.0 1.7 0.00 0.00 0.00 58 1016.2
20260510054523 61 136 0.0 1.7 0.00 0.00 0.00 57 1016.0
20260510053021 61 212 0.0 0.0 0.00 0.00 0.00 56 1015.9
20260510051528 62 309 0.0 0.0 0.00 0.00 0.00 55 1016.0
20260510050029 63 311 0.0 1.7 0.00 0.00 0.00 54 1015.9
20260510044528 64 15 0.0 5.2 0.00 0.00 0.00 53 1015.9
20260510043028 64 341 0.0 3.5 0.00 0.00 0.00 53 1015.7
20260510041533 64 275 0.9 5.2 0.00 0.00 0.00 52 1015.5
20260510040026 65 310 0.0 2.6 0.00 0.00 0.00 52 1015.3
20260510034504 66 153 0.0 2.6 0.00 0.00 0.00 50 1015.1
20260510033003 68 307 0.9 4.3 0.00 0.00 0.00 48 1015.1
20260510031518 69 177 0.0 5.2 0.00 0.00 0.00 45 1015.0
20260510030013 73 321 0.9 3.5 0.00 0.00 0.00 39 1014.9
20260510024511 75 285 0.0 0.9 0.00 0.00 0.00 30 1014.6
20260510023008 77 143 0.0 0.0 0.00 0.00 0.00 29 1014.7
20260510021505 78 143 0.0 0.0 0.00 0.00 0.00 27 1014.8
20260510020004 78 143 0.0 0.0 0.00 0.00 0.00 28 1014.7
20260510014503 77 143 0.0 0.0 0.00 0.00 0.00 29 1014.9
20260510013023 78 140 0.0 0.0 0.00 0.00 0.00 28 1015.0
20260510011519 78 140 0.0 0.0 0.00 0.00 0.00 29 1015.1
20260510010014 79 127 0.0 0.9 0.00 0.00 0.00 29 1015.2
20260510004509 80 127 0.0 0.0 0.00 0.00 0.00 28 1015.3
20260510003010 80 118 0.0 0.9 0.00 0.00 0.00 28 1015.4
20260510001506 80 65 0.0 0.9 0.00 0.00 0.00 26 1015.5
20260510000004 81 86 0.0 0.9 0.00 0.00 0.00 27 1015.6
20260509234534 81 63 0.0 0.9 0.00 0.00 0.00 25 1015.8
20260509233022 79 212 0.0 1.7 0.00 0.00 0.00 26 1015.8
20260509231520 80 317 0.0 0.9 0.00 0.00 0.00 27 1016.1
20260509230016 80 141 0.0 0.9 0.00 0.00 0.00 30 1016.1
20260509224512 79 71 0.0 2.6 0.00 0.00 0.00 31 1016.3
20260509223015 78 50 0.0 4.3 0.00 0.00 0.00 32 1016.6
20260509221508 78 333 0.0 1.7 0.00 0.00 0.00 31 1016.8
20260509220025 77 283 0.0 2.6 0.00 0.00 0.00 35 1017.2
20260509214526 77 56 0.0 1.7 0.00 0.00 0.00 34 1017.4
20260509213024 76 301 0.0 1.7 0.00 0.00 0.00 36 1017.6
20260509211522 76 285 0.0 1.7 0.00 0.00 0.00 38 1017.8
20260509210022 75 32 0.9 4.3 0.00 0.00 0.00 37 1017.9
20260509204515 74 69 0.0 2.6 0.00 0.00 0.00 39 1018.0
20260509203030 73 193 0.0 1.7 0.00 0.00 0.00 42 1018.1
20260509201528 73 207 0.0 2.6 0.00 0.00 0.00 42 1018.3
20260509200026 72 301 0.0 2.6 0.00 0.00 0.00 43 1018.4
20260509194525 72 80 0.0 1.7 0.00 0.00 0.00 39 1018.6
20260509193025 70 317 0.0 3.5 0.00 0.00 0.00 43 1018.8
20260509191521 69 18 0.0 1.7 0.00 0.00 0.00 46 1018.9
20260509190020 69 31 0.0 3.5 0.00 0.00 0.00 47 1019.1
20260509184502 68 52 0.0 3.5 0.00 0.00 0.00 53 1019.4
20260509183012 68 57 0.0 3.5 0.00 0.00 0.00 54 1019.4